Regional Weather Roundup
Issued by NWS

Home | Current Version | Previous Version | Text Only | Print | Product List | Glossary Off
Versions: 1 2 3 4 5 6 7 8 9 10 11 12 13 14 15 16 17 18 19 20 21 22 23 24 25 26 27 28 29 30 31 32 33 34 35 36 37 38 39 40 41 42 43 44 45 46 47 48 49 50

000
ASUS45 KPSR 152100
RWRAZ

PRELIMINARY ARIZONA REGIONAL HOURLY WEATHER ROUNDUP
NATIONAL WEATHER SERVICE PHOENIX AZ
200 PM MST MON SEP 15 2014

NOTE: FAIR INDICATES FEW OR NO CLOUDS BELOW 12,000 FEET WITH NO
SIGNIFICANT WEATHER AND/OR OBSTRUCTIONS TO VISIBILITY.

AZZ001>003-036-152200-
NORTHWEST ARIZONA

CITY           SKY/WX    TMP DP  RH WIND       PRES   REMARKS
KINGMAN        SUNNY     95  45  17 VRB5      30.01F
$$

AZZ004>008-015-016-018-152200-
NORTH CENTRAL ARIZONA

CITY           SKY/WX    TMP DP  RH WIND       PRES   REMARKS
GRAND CANYON   PTSUNNY   74  47  38 E3        30.27F
PRESCOTT       MOSUNNY   87  52  29 E5        30.13F
FLAGSTAFF      PTSUNNY   72  40  31 VRB6      30.30F
PAYSON         MOSUNNY   84  54  34 N12G20    30.16S THUNDER
PAGE           SUNNY     91  43  18 NW7       30.08F
$$

AZZ009>014-017-152200-
NORTHEAST ARIZONA

CITY           SKY/WX    TMP DP  RH WIND       PRES   REMARKS
WINSLOW        NOT AVBL
SAINT JOHNS    SUNNY     86  43  22 VRB5      30.14F
$$

AZZ023-152200-
GREATER PHOENIX AREA

CITY           SKY/WX    TMP DP  RH WIND       PRES   REMARKS
PHOENIX        MOSUNNY  103  58  22 VRB5      29.80F HX 102
GLENDALE       MOSUNNY  100  59  25 NE6       29.82F HX 100
DEER VALLEY    SUNNY     98  57  25 CALM      29.83F
SCOTTSDALE     SUNNY     99  56  23 VRB3      29.85F
MESA-GATEWAY   MOSUNNY   99  57  25 SE7       29.84F
CHANDLER       MOSUNNY  100  59  25 E9        29.82F HX 100
$$

AZZ027-028-152200-
SOUTHWEST MARICOPA COUNTY AND PINAL COUNTY

CITY           SKY/WX    TMP DP  RH WIND       PRES   REMARKS
CASA GRANDE    SUNNY     99  59  26 CALM      29.83F
GILA BEND      PTCLDY   104  54  18 E9G17     29.78F HX 102
$$

AZZ503-504-507>509-152200-
SOUTHEAST ARIZONA

CITY           SKY/WX    TMP DP  RH WIND       PRES   REMARKS
TUCSON         PTSUNNY   95  55  26 NE6       29.93F
RYAN FIELD       N/A     97  55  24 NE7       29.91F
NOGALES        CLOUDY    88  59  37 VRB5      30.01F
SAFFORD        SUNNY     92  54  27 VRB6      29.97F
$$

AZZ020-021-025-026-031-152200-
SOUTHWEST ARIZONA

CITY           SKY/WX    TMP DP  RH WIND       PRES   REMARKS
YUMA           NOT AVBL
$$

CAZ031-033-041-043-047-048-061-152200-
SOUTHERN CALIFORNIA

CITY           SKY/WX    TMP DP  RH WIND       PRES   REMARKS
DOWNTOWN L.A.  SUNNY     92  58  31 VRB3      29.77F
L.A. AIRPORT   MOSUNNY   82  61  48 W18       29.79F
SAN DIEGO      MOSUNNY   84  69  60 NW10      29.77F
BURBANK        SUNNY    102  53  19 S8        29.78F HX 100
ONTARIO        MOSUNNY  106  50  15 SW9G20    29.78F HX 103
RIVERSIDE      SUNNY    107  47  13 VRB7      29.76F HX 103
PALM SPRINGS   SUNNY    110  51  14 SE13      29.75F HX 107
EL CENTRO NAS  MOSUNNY  109  57  18 NE7       29.70F HX 109
IMPERIAL       SUNNY    108  58  19 SE7       29.70F HX 108
BLYTHE         SUNNY    106  57  20 VRB6      29.75F HX 105
$$

NVZ020-UTZ003-152200-
SOUTHERN NEVADA-UTAH

CITY           SKY/WX    TMP DP  RH WIND       PRES   REMARKS
LAS VEGAS      NOT AVBL
SALT LAKE CITY MOSUNNY   87  41  19 NW10      30.08F
$$

NMZ009-TXZ055-152200-
NEW MEXICO-WEST TEXAS

CITY           SKY/WX    TMP DP  RH WIND       PRES   REMARKS
ALBUQUERQUE    MOSUNNY   83  54  36 VRB3      30.17F
EL PASO        CLOUDY    78  59  51 SE8       30.13F
$$


........................KEY........................
SKY/WX - SKY CONDITION/WEATHER
TMP    - TEMPERATURE IN FAHRENHEIT
DP     - DEW POINT IN FAHRENHEIT
RH     - RELATIVE HUMIDITY IN PERCENT
WIND   - DIRECTION AND SPEED IN MILES PER HOUR (MPH)
VRB    - VARIABLE WIND DIRECTION
PRES   - MEAN SEA LEVEL PRESSURE IN INCHES OF MERCURY
         F - FALLING PRESSURE   R - RISING PRESSURE
         S - STEADY PRESSURE
VSB    - VISIBILITY IN MILES
HX     - HEAT INDEX IN FAHRENHEIT
WCI    - WIND CHILL INDEX IN FAHRENHEIT
TC     - TEMPERATURE IN CELSIUS WHICH IS ALSO KNOWN AS
         TEMPERATURE IN CENTIGRADE
AFB    - AIR FORCE BASE
         LUKE AFB IS LUKE AIR FORCE BASE
         DAVIS-MONTHAN IS DAVIS-MONTHAN AIR FORCE BASE
NAS    - NAVAL AIR STATION
         EL CENTRO NAS IS EL CENTRO NAVAL AIR STATION
N/A    - NOT AVAILABLE



USA.gov is the U.S. government's official web portal to all federal, state and local government web resources and services.